Flag for Austria Weather past 2 weeks in Klagenfurt, Carinthia, Austria

Now
63 °F

Sprinkles. Passing clouds.


Feels Like: 63 °F
Forecast: 57 / 80 °F
Wind: 2 mph from North

Location: Klagenfurt-Flughafen

Current Time: Aug 2, 2015 at 5:05:42 AM

Latest Report: Aug 2, 2015 at 4:20 AM


Visibility: N/A

Pressure: 30.01 "Hg

Humidity: 94%

Dew point: 61 °F

Location of KlagenfurtLocation

Historic Weather in Klagenfurt — Graph

°F

Klagenfurt temperature yesterday

Maximum temperature yesterday: 75 °F (at 3:20 PM)
Minimum temperature yesterday: 50 °F (at 5:20 AM)
Average temperature yesterday: 64 °F

Past Weeks' High & Low Weather Summary

 TemperatureHumidityPressure
High93 °F (Jul 19, 3:50 PM)100% (Jul 28, 12:20 AM)30.18 "Hg (Jul 28, 12:20 AM)
Low50 °F (Aug 1, 5:20 AM)31% (Jul 18, 4:20 PM)29.77 "Hg (Jul 25, 5:20 PM)
Average70 °F73%29.97 "Hg
* Reported Jul 18 3:20 AM — Aug 2 3:50 AM, Klagenfurt, Weather by CustomWeather, © 2015

Note: Actual official high and low records may vary slightly from our data, if they occured in-between our weather recording intervals... More about our weather records

Advertising

Klagenfurt weather history for previous 24 hours

 ConditionsComfort  
Time TempWeatherWind HumidityBarometerVisibility
3:50 AM
Sun, Aug 2
63 °FSprinkles. Passing clouds.2 mph94%30.04 "HgN/A
3:20 AM63 °FLight rain. Passing clouds.1 mph94%30.04 "HgN/A
2:50 AM63 °FLight rain. Partly cloudy.1 mph94%30.04 "HgN/A
2:20 AM63 °FLight rain. Partly cloudy.2 mph94%30.04 "HgN/A
1:50 AM63 °FRain. Passing clouds.2 mph100%30.04 "Hg6 mi
1:20 AM64 °FLight rain. Passing clouds.2 mph88%30.07 "HgN/A
12:50 AM64 °FRain. Passing clouds.3 mph88%30.07 "HgN/A
11:50 PM
Sat, Aug 1
66 °FPartly cloudy.1 mph78%30.04 "HgN/A
11:20 PM66 °FPassing clouds.1 mph78%30.04 "HgN/A
10:50 PM66 °FPassing clouds.3 mph78%30.04 "HgN/A
10:20 PM68 °FPassing clouds.1 mph73%30.04 "HgN/A
9:50 PM68 °FPassing clouds.1 mph78%30.04 "HgN/A
9:20 PM70 °FPartly sunny.2 mph69%30.01 "HgN/A
8:50 PM70 °FBroken clouds.2 mph69%30.01 "HgN/A
8:20 PM72 °FPartly sunny.1 mph65%29.98 "HgN/A
7:50 PM72 °FPartly sunny.2 mph65%29.98 "HgN/A
7:20 PM73 °FPartly sunny.2 mph53%29.98 "HgN/A
6:50 PM73 °FPartly sunny.2 mph57%30.01 "HgN/A
6:20 PM75 °FScattered clouds.2 mph54%30.01 "HgN/A
5:50 PM73 °FPartly sunny.1 mph53%30.01 "HgN/A
5:20 PM73 °FScattered clouds.2 mph53%30.01 "HgN/A
4:50 PM73 °FScattered clouds.3 mph53%30.01 "HgN/A
4:20 PM75 °FScattered clouds.2 mph47%30.04 "HgN/A
3:50 PM73 °FScattered clouds.2 mph50%30.04 "HgN/A
3:20 PM75 °FScattered clouds.3 mph47%30.04 "HgN/A
2:50 PM73 °FScattered clouds.3 mph47%30.04 "HgN/A
2:20 PM72 °FScattered clouds.3 mph50%30.07 "HgN/A
1:50 PM72 °FScattered clouds.3 mph50%30.04 "HgN/A
1:20 PM72 °FScattered clouds.2 mph50%30.07 "HgN/A
12:50 PM72 °FPassing clouds.3 mph53%30.07 "HgN/A
12:20 PM70 °FPassing clouds.2 mph53%30.07 "HgN/A
11:50 AM68 °FPassing clouds.3 mph60%30.07 "HgN/A
11:20 AM66 °FScattered clouds.2 mph60%30.09 "HgN/A
10:50 AM64 °FScattered clouds.2 mph64%30.09 "HgN/A
10:20 AM64 °FScattered clouds.1 mph64%30.09 "HgN/A
9:50 AM63 °FScattered clouds.2 mph68%30.09 "HgN/A
9:20 AM63 °FScattered clouds.2 mph68%30.09 "HgN/A
8:50 AM59 °FScattered clouds.3 mph77%30.12 "HgN/A
8:20 AM59 °FScattered clouds.5 mph77%30.09 "HgN/A
7:50 AM55 °FScattered clouds.1 mph82%30.12 "HgN/A
7:20 AM54 °FScattered clouds.1 mph88%30.09 "HgN/A
6:50 AM54 °FSunny.2 mph88%30.09 "Hg10 mi
6:20 AM50 °FPassing clouds.3 mph94%30.09 "HgN/A
5:50 AM50 °FFog.3 mph94%30.09 "HgN/A
5:20 AM50 °FFog.1 mph100%30.09 "HgN/A
Weather by CustomWeather, © 2015

See weather overviewHow to use our weather pages